TAP203 GMMN-LPFR

Flight info

Callsign TAP203
Flight time 0h 44m
Altitude 30000
Route LAKAM UR722 AMSEL DCT GIMAL
Aircraft A320/M-SDE3FGHIRWY/LB1

Departure

Time 2026-05-04 15:07
Airport Mohammed V International Airport (GMMN)

Arrival

Time 2026-05-04 15:51
Airport Faro - Gago Coutinho International Airport (LPFR)
Time Latitude Longitude Altitude Speed Heading
2026-05-04 14:40 33.37047 -7.58166 655 ft 0 kts 77°
2026-05-04 14:43 33.36282 -7.57994 585 ft 0 kts 73°
2026-05-04 14:58 33.36281 -7.57996 658 ft 2 kts 73°
2026-05-04 14:59 33.36273 -7.58026 658 ft 4 kts 70°
2026-05-04 14:59 33.36263 -7.58056 658 ft 4 kts 63°
2026-05-04 14:59 33.36249 -7.58083 658 ft 0 kts 48°
2026-05-04 15:02 33.36257 -7.58088 658 ft 2 kts 336°
2026-05-04 15:02 33.36268 -7.58121 658 ft 5 kts 275°
2026-05-04 15:02 33.36259 -7.58172 658 ft 7 kts 254°
2026-05-04 15:03 33.36234 -7.58226 658 ft 11 kts 221°
2026-05-04 15:03 33.36161 -7.58226 659 ft 10 kts 162°
2026-05-04 15:03 33.36093 -7.58202 659 ft 13 kts 164°
2026-05-04 15:03 33.35982 -7.58163 660 ft 19 kts 163°
2026-05-04 15:04 33.35860 -7.58125 661 ft 17 kts 164°
2026-05-04 15:04 33.35754 -7.58087 659 ft 15 kts 163°
2026-05-04 15:04 33.35656 -7.58053 662 ft 15 kts 164°
2026-05-04 15:04 33.35535 -7.58014 661 ft 18 kts 165°
2026-05-04 15:05 33.35419 -7.57973 662 ft 16 kts 162°
2026-05-04 15:05 33.35316 -7.57947 664 ft 15 kts 182°
2026-05-04 15:05 33.35251 -7.58018 663 ft 13 kts 249°
2026-05-04 15:05 33.35231 -7.58097 664 ft 7 kts 253°
2026-05-04 15:06 33.35218 -7.58150 665 ft 7 kts 254°
2026-05-04 15:06 33.35226 -7.58244 665 ft 14 kts 308°
2026-05-04 15:06 33.35313 -7.58296 666 ft 15 kts 344°
2026-05-04 15:07 33.35945 -7.58511 658 ft 105 kts 344°
2026-05-04 15:07 33.36812 -7.58808 719 ft 149 kts 345°
2026-05-04 15:07 33.37773 -7.59174 1467 ft 144 kts 346°
2026-05-04 15:07 33.38753 -7.59496 2066 ft 151 kts 347°
2026-05-04 15:08 33.39824 -7.59914 2390 ft 173 kts 340°
2026-05-04 15:08 33.40991 -7.60567 2682 ft 198 kts 332°
2026-05-04 15:08 33.42220 -7.61533 3052 ft 224 kts 323°
2026-05-04 15:08 33.43404 -7.62829 3759 ft 236 kts 313°
2026-05-04 15:09 33.44426 -7.64365 4639 ft 240 kts 303°
2026-05-04 15:09 33.45358 -7.66051 5556 ft 242 kts 303°
2026-05-04 15:09 33.46292 -7.67733 6522 ft 242 kts 302°
2026-05-04 15:10 33.48179 -7.71129 8274 ft 248 kts 301°
2026-05-04 15:10 33.49132 -7.72846 9102 ft 253 kts 301°
2026-05-04 15:10 33.51113 -7.76414 10724 ft 260 kts 301°
2026-05-04 15:11 33.52122 -7.78230 11511 ft 263 kts 301°
2026-05-04 15:11 33.53140 -7.80067 12298 ft 266 kts 301°
2026-05-04 15:11 33.54166 -7.81925 13074 ft 269 kts 301°
2026-05-04 15:11 33.55205 -7.83807 13854 ft 272 kts 301°
2026-05-04 15:12 33.56241 -7.85676 14557 ft 273 kts 300°
2026-05-04 15:12 33.57471 -7.87440 15243 ft 280 kts 316°
2026-05-04 15:12 33.59195 -7.88609 15919 ft 292 kts 336°
2026-05-04 15:12 33.61309 -7.88951 16105 ft 325 kts
2026-05-04 15:13 33.63599 -7.88425 16255 ft 350 kts
2026-05-04 15:13 33.66048 -7.87769 16413 ft 370 kts
2026-05-04 15:13 33.68608 -7.87076 16885 ft 379 kts
2026-05-04 15:13 33.71196 -7.86377 17483 ft 384 kts
2026-05-04 15:14 33.73831 -7.85673 18118 ft 388 kts
2026-05-04 15:14 33.76452 -7.84979 18676 ft 392 kts
2026-05-04 15:14 33.79146 -7.84268 19226 ft 396 kts
2026-05-04 15:14 33.81860 -7.83556 19785 ft 399 kts
2026-05-04 15:15 33.84557 -7.82852 20334 ft 403 kts
2026-05-04 15:15 33.87310 -7.82131 20891 ft 406 kts
2026-05-04 15:15 33.90088 -7.81403 21444 ft 410 kts
2026-05-04 15:16 33.95723 -7.79924 22531 ft 417 kts
2026-05-04 15:16 33.98539 -7.79182 23065 ft 421 kts
2026-05-04 15:16 34.04317 -7.77657 24035 ft 428 kts
2026-05-04 15:17 34.07246 -7.76882 24485 ft 430 kts
2026-05-04 15:17 34.13093 -7.75329 25341 ft 434 kts
2026-05-04 15:17 34.16055 -7.74543 25761 ft 436 kts
2026-05-04 15:18 34.19048 -7.74018 26160 ft 431 kts 356°
2026-05-04 15:18 34.21030 -7.73982 26427 ft 427 kts 350°
2026-05-04 15:18 34.24965 -7.74259 26957 ft 428 kts 349°
2026-05-04 15:19 34.29941 -7.74621 27620 ft 431 kts 349°
2026-05-04 15:19 34.32946 -7.74832 28008 ft 434 kts 348°
2026-05-04 15:19 34.38977 -7.75248 28761 ft 438 kts 348°
2026-05-04 15:20 34.42024 -7.75456 29120 ft 440 kts 348°
2026-05-04 15:20 34.45089 -7.75668 29476 ft 442 kts 348°
2026-05-04 15:20 34.48172 -7.75884 29813 ft 444 kts 348°
2026-05-04 15:20 34.51264 -7.76099 30056 ft 445 kts 348°
2026-05-04 15:21 34.54328 -7.76302 30095 ft 431 kts 348°
2026-05-04 15:21 34.57254 -7.76488 30099 ft 422 kts 347°
2026-05-04 15:22 34.66000 -7.77099 30098 ft 417 kts 347°
2026-05-04 15:22 34.74678 -7.77722 30097 ft 417 kts 347°
2026-05-04 15:23 34.80444 -7.78179 30098 ft 417 kts 346°
2026-05-04 15:23 34.86245 -7.78681 30108 ft 417 kts 346°
2026-05-04 15:24 34.97798 -7.79665 30110 ft 417 kts 346°
2026-05-04 15:25 35.03591 -7.80150 30104 ft 417 kts 347°
2026-05-04 15:26 35.12249 -7.80870 30103 ft 417 kts 347°
2026-05-04 15:26 35.20945 -7.81606 30100 ft 417 kts 346°
2026-05-04 15:27 35.29615 -7.82340 30104 ft 417 kts 346°
2026-05-04 15:28 35.38323 -7.83059 30104 ft 417 kts 346°
2026-05-04 15:29 35.46983 -7.83809 30102 ft 416 kts 346°
2026-05-04 15:30 35.67196 -7.85657 30089 ft 416 kts 345°
2026-05-04 15:31 35.75846 -7.86443 30089 ft 416 kts 346°
2026-05-04 15:32 35.84549 -7.87230 28509 ft 400 kts 346°
2026-05-04 15:32 35.89890 -7.87673 27570 ft 373 kts 346°
2026-05-04 15:33 35.94976 -7.88136 26696 ft 363 kts 346°
2026-05-04 15:34 36.02450 -7.89042 25216 ft 366 kts 352°
2026-05-04 15:34 36.05064 -7.88671 24284 ft 389 kts
2026-05-04 15:34 36.10459 -7.87389 22137 ft 395 kts
2026-05-04 15:35 36.15837 -7.86042 20188 ft 389 kts
2026-05-04 15:35 36.18472 -7.85382 19336 ft 383 kts
2026-05-04 15:35 36.21035 -7.84746 18640 ft 375 kts
2026-05-04 15:36 36.25992 -7.83535 17684 ft 356 kts
2026-05-04 15:36 36.28420 -7.82953 17231 ft 354 kts
2026-05-04 15:36 36.30838 -7.82371 16793 ft 352 kts
2026-05-04 15:37 36.33244 -7.81791 16370 ft 351 kts
2026-05-04 15:37 36.35641 -7.81209 15908 ft 350 kts
2026-05-04 15:37 36.38025 -7.80629 15477 ft 349 kts
2026-05-04 15:37 36.40373 -7.80054 15285 ft 335 kts
2026-05-04 15:38 36.42591 -7.79505 15063 ft 324 kts
2026-05-04 15:38 36.44788 -7.78964 14817 ft 319 kts
2026-05-04 15:38 36.46959 -7.78434 14504 ft 316 kts
2026-05-04 15:38 36.49120 -7.77912 14176 ft 315 kts
2026-05-04 15:39 36.51275 -7.77392 13850 ft 314 kts
2026-05-04 15:39 36.53412 -7.76876 13496 ft 312 kts
2026-05-04 15:39 36.57629 -7.75847 12787 ft 308 kts
2026-05-04 15:40 36.59730 -7.75331 12428 ft 306 kts
2026-05-04 15:40 36.61822 -7.74817 12084 ft 305 kts
2026-05-04 15:40 36.63904 -7.74304 11726 ft 303 kts
2026-05-04 15:40 36.65946 -7.73803 11387 ft 301 kts
2026-05-04 15:41 36.67962 -7.73304 11236 ft 285 kts
2026-05-04 15:41 36.69846 -7.72834 11032 ft 269 kts
2026-05-04 15:41 36.71671 -7.72383 10709 ft 265 kts
2026-05-04 15:41 36.73481 -7.71942 10431 ft 263 kts
2026-05-04 15:42 36.75273 -7.71505 10142 ft 261 kts
2026-05-04 15:42 36.77041 -7.71074 9657 ft 258 kts
2026-05-04 15:42 36.78785 -7.70647 9261 ft 248 kts
2026-05-04 15:42 36.80400 -7.70242 9128 ft 231 kts
2026-05-04 15:43 36.81907 -7.69861 9011 ft 211 kts
2026-05-04 15:43 36.83339 -7.69504 8700 ft 207 kts
2026-05-04 15:43 36.84743 -7.69160 8387 ft 204 kts
2026-05-04 15:43 36.86122 -7.68824 8020 ft 199 kts
2026-05-04 15:44 36.87478 -7.68664 7582 ft 193 kts 355°
2026-05-04 15:44 36.88799 -7.68663 7168 ft 190 kts 356°
2026-05-04 15:44 36.90115 -7.68654 6767 ft 187 kts 357°
2026-05-04 15:44 36.91408 -7.68643 6354 ft 185 kts 358°
2026-05-04 15:45 36.92691 -7.68634 5911 ft 183 kts 358°
2026-05-04 15:45 36.93954 -7.68622 5467 ft 181 kts 358°
2026-05-04 15:45 36.95205 -7.68694 5022 ft 178 kts 347°
2026-05-04 15:45 36.96358 -7.69247 4555 ft 178 kts 328°
2026-05-04 15:46 36.97265 -7.70258 4152 ft 176 kts 308°
2026-05-04 15:46 36.97837 -7.71620 3885 ft 178 kts 289°
2026-05-04 15:46 36.98083 -7.73147 3644 ft 178 kts 282°
2026-05-04 15:46 36.98303 -7.74669 3413 ft 177 kts 282°
2026-05-04 15:47 36.98518 -7.76160 3169 ft 176 kts 283°
2026-05-04 15:47 36.98735 -7.77668 2941 ft 176 kts 282°
2026-05-04 15:47 36.98952 -7.79176 2706 ft 175 kts 281°
2026-05-04 15:47 36.99167 -7.80675 2466 ft 174 kts 282°
2026-05-04 15:48 36.99381 -7.82162 2245 ft 174 kts 278°
2026-05-04 15:48 36.99594 -7.83649 2004 ft 168 kts 282°
2026-05-04 15:48 36.99979 -7.86335 1598 ft 150 kts 281°
2026-05-04 15:49 37.00158 -7.87590 1386 ft 138 kts 281°
2026-05-04 15:49 37.00322 -7.88734 1206 ft 129 kts 281°
2026-05-04 15:49 37.00478 -7.89824 1034 ft 128 kts 280°
2026-05-04 15:49 37.00633 -7.90911 858 ft 126 kts 277°
2026-05-04 15:50 37.00770 -7.91993 683 ft 125 kts 278°
2026-05-04 15:50 37.00952 -7.93059 551 ft 125 kts 279°
2026-05-04 15:50 37.01104 -7.94119 377 ft 123 kts 277°
2026-05-04 15:50 37.01251 -7.95180 172 ft 125 kts 274°
2026-05-04 15:51 37.01397 -7.96232 28 ft 120 kts 276°
2026-05-04 15:51 37.01510 -7.97067 20 ft 73 kts 279°
2026-05-04 15:51 37.01570 -7.97495 19 ft 37 kts 280°
2026-05-04 15:51 37.01613 -7.97791 19 ft 27 kts 281°
2026-05-04 15:52 37.01724 -7.97804 20 ft 19 kts 56°
2026-05-04 15:52 37.01775 -7.97669 22 ft 17 kts 76°
2026-05-04 15:52 37.01766 -7.97559 20 ft 10 kts 106°
2026-05-04 15:52 37.01763 -7.97543 20 ft 0 kts 98°
2026-05-04 15:53 37.01763 -7.97542 20 ft 1 kts 98°
2026-05-04 15:53 37.01761 -7.97523 20 ft 3 kts 98°
2026-05-04 15:53 37.01754 -7.97469 20 ft 13 kts 98°
2026-05-04 15:53 37.01738 -7.97343 20 ft 14 kts 101°
2026-05-04 15:54 37.01719 -7.97225 20 ft 13 kts 100°
2026-05-04 15:54 37.01703 -7.97116 20 ft 12 kts 100°
2026-05-04 15:54 37.01689 -7.97018 20 ft 11 kts 100°
2026-05-04 15:54 37.01685 -7.96930 20 ft 9 kts 69°
2026-05-04 15:55 37.01737 -7.96897 22 ft 8 kts 12°
2026-05-04 15:55 37.01792 -7.96884 20 ft 8 kts
2026-05-04 15:55 37.01828 -7.96842 20 ft 9 kts 79°
2026-05-04 15:55 37.01820 -7.96767 20 ft 8 kts 102°
2026-05-04 15:56 37.01809 -7.96700 20 ft 7 kts 100°
2026-05-04 15:56 37.01808 -7.96645 20 ft 5 kts 65°
2026-05-04 15:56 37.01841 -7.96627 20 ft 5 kts
2026-05-04 15:56 37.01872 -7.96620 21 ft 4 kts 11°
2026-05-04 15:57 37.01880 -7.96618 20 ft 0 kts 11°